Powrót do katalogu

NOAA 16 DEB

AktywnyPO
NORAD 41091·DEBRIS·🇺🇸 United States

Wystrzelony Sep 21, 2000 z Vandenberg Space Force Base

Loading…

Następne Przeloty (najbliższe 24 godziny)

TLE

ŚwieżeSource: Space-Track

Epoka: Sep 14, 2026, 08:07 UTC

1 41091U 00055BA  26257.33821281  .00005524  00000-0  17964-2 0  9990
2 41091  98.9695  31.2679 0036620 266.0873  93.6126 14.38828543556302

Śledź NOAA 16 DEB w czasie rzeczywistym z AllMySat

Download on the App Store